Station Historical Data
 
Daily Summary for September 20, 2017 Units:  English    Metric   Both
« Previous Day
Next Day »
Daily Weekly Monthly Yearly Custom
  Current: High: Low: Average:
Temperature: 54.6 °F 62.9 °F 53.9 °F 57.5 °F
Dew Point: 48.9 °F 54.2 °F 39.4 °F 46.1 °F
Humidity: 81 % 83 % 56 % 66 %
Wind Speed: 0.0 mph 21.0 mph 0.0 mph 3.8 mph
Wind Gust: 0.0 mph 25.0 mph - -
Wind:Calm - - SSE
Pressure: 29.83 in 29.98 in 29.81 in -
Precipitation: 0.02 in      
Historical Graphs
 
 
Tabular Data for September 20, 2017
Time Temperature Dew Point Pressure Wind Wind Speed Wind Gust Humidity Rainfall Rate (Hourly) solar
00:01 54.7 °F 41.5 °F 29.98 in Calm     61 % 0.00 in 0.00 W/m2
00:06 54.6 °F 41.4 °F 29.98 in Calm     61 % 0.00 in 0.00 W/m2
00:11 54.6 °F 41.4 °F 29.98 in Calm   5.0 mph 61 % 0.00 in 0.00 W/m2
00:12 54.6 °F 41.4 °F 29.98 in Calm   5.0 mph 61 % 0.00 in 0.00 W/m2
00:17 54.6 °F 41.4 °F 29.98 in Calm     61 % 0.00 in 0.00 W/m2
00:22 54.6 °F 41.4 °F 29.98 in Calm     61 % 0.00 in 0.00 W/m2
00:27 54.5 °F 41.3 °F 29.98 in Calm   3.0 mph 61 % 0.00 in 0.00 W/m2
00:32 54.4 °F 41.2 °F 29.98 in East 2.0 mph 4.0 mph 61 % 0.00 in 0.00 W/m2
00:37 54.3 °F 40.7 °F 29.98 in Calm   3.0 mph 60 % 0.00 in 0.00 W/m2
00:42 54.4 °F 40.8 °F 29.98 in Calm   5.0 mph 60 % 0.00 in 0.00 W/m2
00:47 54.4 °F 40.8 °F 29.98 in Calm   1.0 mph 60 % 0.00 in 0.00 W/m2
00:52 54.3 °F 40.7 °F 29.98 in Calm   7.0 mph 60 % 0.00 in 0.00 W/m2
00:57 54.3 °F 40.7 °F 29.98 in Calm   5.0 mph 60 % 0.00 in 0.00 W/m2
01:02 54.3 °F 40.7 °F 29.98 in Calm   6.0 mph 60 % 0.00 in 0.00 W/m2
01:07 54.3 °F 40.7 °F 29.98 in Calm   6.0 mph 60 % 0.00 in 0.00 W/m2
01:12 54.3 °F 40.7 °F 29.98 in East 1.0 mph 5.0 mph 60 % 0.00 in 0.00 W/m2
01:17 54.3 °F 40.7 °F 29.98 in Calm   6.0 mph 60 % 0.00 in 0.00 W/m2
01:22 54.3 °F 40.7 °F 29.98 in Calm     60 % 0.00 in 0.00 W/m2
01:27 54.3 °F 40.7 °F 29.98 in Calm   7.0 mph 60 % 0.00 in 0.00 W/m2
01:32 54.3 °F 40.7 °F 29.98 in Calm   9.0 mph 60 % 0.00 in 0.00 W/m2
01:37 54.3 °F 40.7 °F 29.98 in Calm   1.0 mph 60 % 0.00 in 0.00 W/m2
01:42 54.2 °F 40.6 °F 29.98 in Calm     60 % 0.00 in 0.00 W/m2
01:47 54.2 °F 40.6 °F 29.98 in Calm   4.0 mph 60 % 0.00 in 0.00 W/m2
01:52 54.2 °F 40.6 °F 29.98 in Calm   5.0 mph 60 % 0.00 in 0.00 W/m2
01:58 54.2 °F 40.6 °F 29.98 in Calm     60 % 0.00 in 0.00 W/m2
02:03 54.1 °F 40.5 °F 29.97 in Calm   7.0 mph 60 % 0.00 in 0.00 W/m2
02:08 54.1 °F 40.5 °F 29.97 in ESE 6.0 mph 7.0 mph 60 % 0.00 in 0.00 W/m2
02:13 54.1 °F 40.5 °F 29.97 in East 2.0 mph 7.0 mph 60 % 0.00 in 0.00 W/m2
02:18 54.0 °F 40.4 °F 29.97 in ESE 6.0 mph 8.0 mph 60 % 0.00 in 0.00 W/m2
02:23 54.0 °F 40.4 °F 29.97 in Calm   9.0 mph 60 % 0.00 in 0.00 W/m2
02:28 54.0 °F 40.0 °F 29.97 in Calm   8.0 mph 59 % 0.00 in 0.00 W/m2
02:33 54.0 °F 40.0 °F 29.97 in Calm   12.0 mph 59 % 0.00 in 0.00 W/m2
02:38 54.0 °F 40.0 °F 29.96 in ESE 1.0 mph 11.0 mph 59 % 0.00 in 0.00 W/m2
02:43 54.0 °F 40.0 °F 29.96 in Calm   12.0 mph 59 % 0.00 in 0.00 W/m2
02:48 54.0 °F 40.0 °F 29.96 in Calm   11.0 mph 59 % 0.00 in 0.00 W/m2
02:53 54.0 °F 40.0 °F 29.96 in ESE 5.0 mph 9.0 mph 59 % 0.00 in 0.00 W/m2
02:58 54.0 °F 40.0 °F 29.96 in Calm   6.0 mph 59 % 0.00 in 0.00 W/m2
03:03 53.9 °F 39.9 °F 29.96 in ESE 2.0 mph 11.0 mph 59 % 0.00 in 0.00 W/m2
03:08 53.9 °F 39.9 °F 29.96 in East 4.0 mph 9.0 mph 59 % 0.00 in 0.00 W/m2
03:13 53.9 °F 39.9 °F 29.96 in Calm   5.0 mph 59 % 0.00 in 0.00 W/m2
03:18 53.9 °F 39.9 °F 29.96 in Calm   11.0 mph 59 % 0.00 in 0.00 W/m2
03:23 53.9 °F 39.9 °F 29.96 in East 8.0 mph 9.0 mph 59 % 0.00 in 0.00 W/m2
03:29 53.9 °F 39.9 °F 29.95 in Calm   7.0 mph 59 % 0.00 in 0.00 W/m2
03:34 53.9 °F 39.9 °F 29.96 in Calm   7.0 mph 59 % 0.00 in 0.00 W/m2
03:39 54.0 °F 40.0 °F 29.95 in Calm   6.0 mph 59 % 0.00 in 0.00 W/m2
03:44 54.1 °F 40.1 °F 29.95 in Calm   4.0 mph 59 % 0.00 in 0.00 W/m2
03:49 54.2 °F 40.2 °F 29.95 in Calm     59 % 0.00 in 0.00 W/m2
03:54 54.3 °F 40.3 °F 29.95 in East 4.0 mph 7.0 mph 59 % 0.00 in 0.00 W/m2
03:59 54.4 °F 40.0 °F 29.95 in East 2.0 mph 7.0 mph 58 % 0.00 in 0.00 W/m2
04:04 54.5 °F 40.5 °F 29.95 in East 5.0 mph 7.0 mph 59 % 0.00 in 0.00 W/m2
04:09 54.6 °F 40.1 °F 29.95 in ESE 4.0 mph 7.0 mph 58 % 0.00 in 0.00 W/m2
04:14 54.7 °F 40.2 °F 29.95 in East 4.0 mph 7.0 mph 58 % 0.00 in 0.00 W/m2
04:19 54.8 °F 40.3 °F 29.95 in ESE 4.0 mph 7.0 mph 58 % 0.00 in 0.00 W/m2
04:24 54.9 °F 40.4 °F 29.95 in ESE 5.0 mph 7.0 mph 58 % 0.00 in 0.00 W/m2
04:29 55.0 °F 40.1 °F 29.95 in ESE 1.0 mph 7.0 mph 57 % 0.00 in 0.00 W/m2
04:32 55.1 °F 40.6 °F 29.95 in ESE 5.0 mph 7.0 mph 58 % 0.00 in 0.00 W/m2
04:37 55.1 °F 40.2 °F 29.95 in Calm   9.0 mph 57 % 0.00 in 0.00 W/m2
04:42 55.1 °F 40.2 °F 29.95 in ESE 2.0 mph 8.0 mph 57 % 0.00 in 0.00 W/m2
04:48 55.2 °F 39.8 °F 29.95 in ESE 1.0 mph 6.0 mph 56 % 0.00 in 0.00 W/m2
04:53 55.2 °F 39.8 °F 29.95 in ESE 4.0 mph 6.0 mph 56 % 0.00 in 0.00 W/m2
04:58 55.2 °F 39.8 °F 29.95 in ESE 2.0 mph 7.0 mph 56 % 0.00 in 0.00 W/m2
05:03 55.3 °F 39.9 °F 29.95 in ESE 4.0 mph 8.0 mph 56 % 0.00 in 0.00 W/m2
05:08 55.3 °F 39.9 °F 29.95 in ESE 4.0 mph 8.0 mph 56 % 0.00 in 0.00 W/m2
05:13 55.2 °F 39.8 °F 29.95 in Calm   7.0 mph 56 % 0.00 in 0.00 W/m2
05:18 55.2 °F 39.8 °F 29.95 in Calm   11.0 mph 56 % 0.00 in 0.00 W/m2
05:23 55.2 °F 39.8 °F 29.95 in Calm   8.0 mph 56 % 0.00 in 0.00 W/m2
05:28 55.1 °F 39.7 °F 29.95 in ESE 6.0 mph 9.0 mph 56 % 0.00 in 0.00 W/m2
05:33 55.0 °F 39.6 °F 29.95 in ESE 1.0 mph 8.0 mph 56 % 0.00 in 0.00 W/m2
05:38 55.0 °F 39.6 °F 29.95 in ESE 2.0 mph 6.0 mph 56 % 0.00 in 0.00 W/m2
05:43 54.9 °F 39.5 °F 29.94 in Calm   5.0 mph 56 % 0.00 in 0.00 W/m2
05:48 54.8 °F 39.4 °F 29.95 in Calm     56 % 0.00 in 0.00 W/m2
05:53 54.8 °F 39.4 °F 29.95 in Calm   6.0 mph 56 % 0.00 in 0.00 W/m2
05:58 54.7 °F 39.8 °F 29.95 in Calm   6.0 mph 57 % 0.00 in 0.00 W/m2
06:03 54.6 °F 39.7 °F 29.95 in ESE 7.0 mph 7.0 mph 57 % 0.00 in 0.00 W/m2
06:08 54.6 °F 39.7 °F 29.94 in SE 7.0 mph 8.0 mph 57 % 0.00 in 0.00 W/m2
06:13 54.5 °F 39.6 °F 29.94 in SE 4.0 mph 11.0 mph 57 % 0.00 in 0.00 W/m2
06:18 54.5 °F 39.6 °F 29.94 in SE 6.0 mph 7.0 mph 57 % 0.00 in 0.00 W/m2
06:23 54.5 °F 39.6 °F 29.94 in Calm   7.0 mph 57 % 0.00 in 0.00 W/m2
06:28 54.5 °F 39.6 °F 29.94 in SE 4.0 mph 7.0 mph 57 % 0.00 in 0.00 W/m2
06:33 54.5 °F 39.6 °F 29.94 in Calm   7.0 mph 57 % 0.00 in 0.00 W/m2
06:38 54.5 °F 39.6 °F 29.94 in Calm   7.0 mph 57 % 0.00 in 0.00 W/m2
06:43 54.5 °F 39.6 °F 29.94 in Calm   4.0 mph 57 % 0.00 in 0.00 W/m2
06:48 54.5 °F 39.6 °F 29.94 in Calm   4.0 mph 57 % 0.00 in 0.00 W/m2
06:53 54.6 °F 39.7 °F 29.94 in SE 6.0 mph 8.0 mph 57 % 0.00 in 5.00 W/m2
06:58 54.6 °F 39.7 °F 29.93 in SE 5.0 mph 8.0 mph 57 % 0.00 in 7.00 W/m2
07:03 54.5 °F 39.6 °F 29.93 in SE 7.0 mph 9.0 mph 57 % 0.00 in 9.00 W/m2
07:08 54.6 °F 39.7 °F 29.93 in SE 1.0 mph 7.0 mph 57 % 0.00 in 12.00 W/m2
07:13 54.6 °F 39.7 °F 29.93 in Calm   7.0 mph 57 % 0.00 in 14.00 W/m2
07:18 54.6 °F 39.7 °F 29.93 in SE 4.0 mph 8.0 mph 57 % 0.00 in 18.00 W/m2
07:23 54.6 °F 40.1 °F 29.94 in Calm   6.0 mph 58 % 0.00 in 21.00 W/m2
07:28 54.6 °F 40.1 °F 29.94 in Calm   6.0 mph 58 % 0.00 in 28.00 W/m2
07:33 54.7 °F 40.2 °F 29.94 in SE 2.0 mph 6.0 mph 58 % 0.00 in 32.00 W/m2
07:38 54.7 °F 40.2 °F 29.94 in Calm   5.0 mph 58 % 0.00 in 37.00 W/m2
07:43 54.8 °F 40.3 °F 29.94 in SE 2.0 mph 7.0 mph 58 % 0.00 in 44.00 W/m2
07:48 54.8 °F 40.8 °F 29.94 in SE 5.0 mph 8.0 mph 59 % 0.00 in 54.00 W/m2
07:53 54.9 °F 40.9 °F 29.94 in SE 6.0 mph 7.0 mph 59 % 0.00 in 63.00 W/m2
07:58 54.9 °F 40.4 °F 29.94 in SE 1.0 mph 7.0 mph 58 % 0.00 in 76.00 W/m2
08:03 55.0 °F 41.0 °F 29.93 in SE 4.0 mph 11.0 mph 59 % 0.00 in 86.00 W/m2
08:09 55.1 °F 40.6 °F 29.93 in SE 1.0 mph 6.0 mph 58 % 0.00 in 100.00 W/m2
08:14 55.2 °F 40.7 °F 29.93 in Calm   8.0 mph 58 % 0.00 in 113.00 W/m2
08:19 55.3 °F 40.8 °F 29.93 in SE 5.0 mph 9.0 mph 58 % 0.00 in 116.00 W/m2
08:24 55.5 °F 41.0 °F 29.93 in Calm   9.0 mph 58 % 0.00 in 116.00 W/m2
08:29 55.6 °F 41.1 °F 29.93 in SE 5.0 mph 11.0 mph 58 % 0.00 in 123.00 W/m2
08:34 55.7 °F 41.2 °F 29.93 in SE 5.0 mph 11.0 mph 58 % 0.00 in 118.00 W/m2
08:39 55.9 °F 41.3 °F 29.93 in SE 2.0 mph 8.0 mph 58 % 0.00 in 135.00 W/m2
08:44 56.0 °F 41.5 °F 29.93 in Calm   5.0 mph 58 % 0.00 in 134.00 W/m2
08:49 56.2 °F 42.1 °F 29.93 in Calm   6.0 mph 59 % 0.00 in 135.00 W/m2
08:54 56.2 °F 42.1 °F 29.93 in Calm   8.0 mph 59 % 0.00 in 155.00 W/m2
08:59 56.4 °F 42.3 °F 29.93 in SE 7.0 mph 8.0 mph 59 % 0.00 in 172.00 W/m2
09:04 56.5 °F 42.8 °F 29.92 in SSE 7.0 mph 11.0 mph 60 % 0.00 in 236.00 W/m2
09:09 56.7 °F 43.0 °F 29.92 in South 1.0 mph 11.0 mph 60 % 0.00 in 236.00 W/m2
09:14 56.9 °F 43.2 °F 29.93 in SSE 5.0 mph 11.0 mph 60 % 0.00 in 313.00 W/m2
09:19 57.1 °F 43.4 °F 29.93 in Calm   9.0 mph 60 % 0.00 in 258.00 W/m2
09:24 57.3 °F 43.5 °F 29.93 in Calm   8.0 mph 60 % 0.00 in 241.00 W/m2
09:29 57.5 °F 43.7 °F 29.93 in South 7.0 mph 10.0 mph 60 % 0.00 in 283.00 W/m2
09:34 57.7 °F 43.9 °F 29.93 in Calm   13.0 mph 60 % 0.00 in 295.00 W/m2
09:39 57.9 °F 44.1 °F 29.93 in South 5.0 mph 13.0 mph 60 % 0.00 in 255.00 W/m2
09:44 58.1 °F 44.3 °F 29.93 in South 10.0 mph 15.0 mph 60 % 0.00 in 257.00 W/m2
09:49 58.3 °F 44.9 °F 29.93 in Calm   10.0 mph 61 % 0.00 in 258.00 W/m2
09:54 58.5 °F 45.1 °F 29.93 in South 5.0 mph 14.0 mph 61 % 0.00 in 250.00 W/m2
09:59 58.6 °F 44.8 °F 29.93 in SSE 6.0 mph 10.0 mph 60 % 0.00 in 246.00 W/m2
10:04 58.7 °F 44.9 °F 29.93 in Calm   8.0 mph 60 % 0.00 in 278.00 W/m2
10:09 58.8 °F 45.0 °F 29.93 in SW 4.0 mph 10.0 mph 60 % 0.00 in 287.00 W/m2
10:14 58.9 °F 45.5 °F 29.93 in Calm   7.0 mph 61 % 0.00 in 329.00 W/m2
10:15 58.9 °F 45.5 °F 29.93 in Calm   7.0 mph 61 % 0.00 in 366.00 W/m2
10:20 59.0 °F 45.6 °F 29.93 in South 6.0 mph 10.0 mph 61 % 0.00 in 362.00 W/m2
10:25 59.2 °F 45.8 °F 29.93 in WSW 3.0 mph 8.0 mph 61 % 0.00 in 902.00 W/m2
10:30 59.4 °F 46.4 °F 29.93 in SSW 9.0 mph 10.0 mph 62 % 0.00 in 891.00 W/m2
10:35 59.6 °F 46.2 °F 29.93 in SW 7.0 mph 12.0 mph 61 % 0.00 in 399.00 W/m2
10:41 59.7 °F 46.2 °F 29.93 in SSW 7.0 mph 14.0 mph 61 % 0.00 in 357.00 W/m2
10:45 59.8 °F 46.3 °F 29.93 in Calm   12.0 mph 61 % 0.00 in 357.00 W/m2
10:51 59.9 °F 46.4 °F 29.93 in Calm   9.0 mph 61 % 0.00 in 357.00 W/m2
10:56 60.0 °F 47.0 °F 29.93 in SE 8.0 mph 12.0 mph 62 % 0.00 in 316.00 W/m2
11:01 60.0 °F 47.4 °F 29.93 in SSW 3.0 mph 10.0 mph 63 % 0.00 in 346.00 W/m2
11:06 60.1 °F 47.5 °F 29.93 in SSW 2.0 mph 9.0 mph 63 % 0.00 in 394.00 W/m2
11:11 60.2 °F 48.0 °F 29.92 in South 7.0 mph 12.0 mph 64 % 0.00 in 473.00 W/m2
11:16 60.3 °F 48.1 °F 29.92 in SSW 5.0 mph 12.0 mph 64 % 0.00 in 997.00 W/m2
11:21 60.5 °F 48.3 °F 29.92 in South 8.0 mph 12.0 mph 64 % 0.00 in 450.00 W/m2
11:26 60.7 °F 48.5 °F 29.92 in Calm     64 % 0.00 in 439.00 W/m2
11:31 61.0 °F 48.8 °F 29.92 in Calm   7.0 mph 64 % 0.00 in 404.00 W/m2
11:36 61.1 °F 48.8 °F 29.92 in Calm   5.0 mph 64 % 0.00 in 404.00 W/m2
11:41 61.3 °F 49.0 °F 29.91 in SSE 8.0 mph 8.0 mph 64 % 0.00 in 501.00 W/m2
11:46 61.4 °F 49.1 °F 29.91 in SSW 8.0 mph 11.0 mph 64 % 0.00 in 510.00 W/m2
11:51 61.6 °F 48.9 °F 29.91 in South 9.0 mph 10.0 mph 63 % 0.00 in 628.00 W/m2
11:56 61.8 °F 49.1 °F 29.91 in SSW 5.0 mph 9.0 mph 63 % 0.00 in 554.00 W/m2
12:01 62.1 °F 49.4 °F 29.91 in South 9.0 mph 9.0 mph 63 % 0.00 in 548.00 W/m2
12:06 62.4 °F 49.7 °F 29.91 in Calm     63 % 0.00 in 388.00 W/m2
12:11 62.6 °F 49.8 °F 29.91 in SSW 7.0 mph 9.0 mph 63 % 0.00 in 308.00 W/m2
12:16 62.7 °F 49.9 °F 29.91 in Calm   8.0 mph 63 % 0.00 in 355.00 W/m2
12:21 62.6 °F 49.8 °F 29.91 in South 4.0 mph 5.0 mph 63 % 0.00 in 339.00 W/m2
12:26 62.6 °F 49.8 °F 29.91 in Calm   3.0 mph 63 % 0.00 in 281.00 W/m2
12:31 62.6 °F 50.3 °F 29.91 in South 7.0 mph 7.0 mph 64 % 0.00 in 394.00 W/m2
12:37 62.7 °F 50.4 °F 29.90 in Calm   4.0 mph 64 % 0.00 in 295.00 W/m2
12:42 62.8 °F 50.5 °F 29.90 in Calm   7.0 mph 64 % 0.00 in 214.00 W/m2
12:47 62.9 °F 50.5 °F 29.90 in SSW 10.0 mph 11.0 mph 64 % 0.00 in 202.00 W/m2
12:52 62.9 °F 50.5 °F 29.90 in SSW 9.0 mph 14.0 mph 64 % 0.00 in 200.00 W/m2
12:57 62.9 °F 50.5 °F 29.90 in SSW 2.0 mph 8.0 mph 64 % 0.00 in 227.00 W/m2
13:02 62.8 °F 50.5 °F 29.89 in SSW 3.0 mph 12.0 mph 64 % 0.00 in 213.00 W/m2
13:07 62.7 °F 50.8 °F 29.89 in SSE 5.0 mph 9.0 mph 65 % 0.00 in 186.00 W/m2
13:12 62.7 °F 50.8 °F 29.88 in SSE 1.0 mph 10.0 mph 65 % 0.00 in 197.00 W/m2
13:17 62.6 °F 51.1 °F 29.88 in South 6.0 mph 9.0 mph 66 % 0.00 in 230.00 W/m2
13:22 62.6 °F 51.1 °F 29.88 in SSE 6.0 mph 12.0 mph 66 % 0.00 in 237.00 W/m2
13:27 62.6 °F 51.1 °F 29.88 in South 7.0 mph 12.0 mph 66 % 0.00 in 162.00 W/m2
13:32 62.6 °F 51.1 °F 29.88 in Calm   2.0 mph 66 % 0.00 in 141.00 W/m2
13:37 62.6 °F 51.1 °F 29.87 in Calm   6.0 mph 66 % 0.00 in 149.00 W/m2
13:42 62.6 °F 51.1 °F 29.87 in SSW 11.0 mph 17.0 mph 66 % 0.00 in 160.00 W/m2
13:47 62.5 °F 51.0 °F 29.87 in SSW 3.0 mph 7.0 mph 66 % 0.00 in 216.00 W/m2
13:52 62.5 °F 51.0 °F 29.87 in South 4.0 mph 7.0 mph 66 % 0.00 in 149.00 W/m2
13:57 62.5 °F 51.4 °F 29.86 in Calm   5.0 mph 67 % 0.00 in 234.00 W/m2
14:02 62.6 °F 51.5 °F 29.86 in South 8.0 mph 9.0 mph 67 % 0.00 in 111.00 W/m2
14:07 62.6 °F 51.5 °F 29.86 in South 4.0 mph 14.0 mph 67 % 0.00 in 111.00 W/m2
14:12 62.6 °F 51.5 °F 29.86 in South 10.0 mph 11.0 mph 67 % 0.00 in 153.00 W/m2
14:17 62.6 °F 51.9 °F 29.86 in South 4.0 mph 11.0 mph 68 % 0.00 in 237.00 W/m2
14:22 62.6 °F 51.9 °F 29.86 in Calm   11.0 mph 68 % 0.00 in 114.00 W/m2
14:27 62.6 °F 51.9 °F 29.86 in SW 5.0 mph 14.0 mph 68 % 0.00 in 93.00 W/m2
14:32 62.6 °F 51.9 °F 29.86 in SSW 9.0 mph 16.0 mph 68 % 0.00 in 162.00 W/m2
14:37 62.5 °F 52.2 °F 29.85 in SSW 7.0 mph 12.0 mph 69 % 0.00 in 174.00 W/m2
14:42 62.5 °F 52.6 °F 29.85 in SW 10.0 mph 10.0 mph 70 % 0.00 in 251.00 W/m2
14:47 62.5 °F 52.6 °F 29.85 in South 7.0 mph 14.0 mph 70 % 0.00 in 272.00 W/m2
14:52 62.5 °F 52.6 °F 29.85 in South 2.0 mph 14.0 mph 70 % 0.00 in 102.00 W/m2
14:57 62.5 °F 53.0 °F 29.85 in SW 6.0 mph 7.0 mph 71 % 0.00 in 42.00 W/m2
15:02 62.4 °F 52.9 °F 29.85 in SW 8.0 mph 14.0 mph 71 % 0.00 in 77.00 W/m2
15:07 62.3 °F 52.8 °F 29.85 in Calm   16.0 mph 71 % 0.00 in 158.00 W/m2
15:12 62.3 °F 53.2 °F 29.85 in South 3.0 mph 14.0 mph 72 % 0.00 in 155.00 W/m2
15:17 62.2 °F 53.1 °F 29.85 in Calm   18.0 mph 72 % 0.00 in 107.00 W/m2
15:22 62.1 °F 53.3 °F 29.85 in South 11.0 mph 17.0 mph 73 % 0.00 in 121.00 W/m2
15:27 62.0 °F 53.3 °F 29.85 in South 4.0 mph 18.0 mph 73 % 0.00 in 134.00 W/m2
15:32 61.9 °F 53.2 °F 29.85 in SSE 11.0 mph 16.0 mph 73 % 0.00 in 93.00 W/m2
15:37 61.9 °F 53.2 °F 29.84 in SSE 6.0 mph 14.0 mph 73 % 0.00 in 105.00 W/m2
15:42 61.8 °F 53.1 °F 29.84 in South 2.0 mph 2.0 mph 73 % 0.00 in 109.00 W/m2
15:47 61.8 °F 53.1 °F 29.84 in Calm   19.0 mph 73 % 0.00 in 76.00 W/m2
15:52 61.8 °F 53.1 °F 29.84 in South 10.0 mph 13.0 mph 73 % 0.00 in 60.00 W/m2
15:57 61.7 °F 53.0 °F 29.83 in South 1.0 mph 4.0 mph 73 % 0.00 in 37.00 W/m2
16:03 61.6 °F 52.9 °F 29.83 in Calm   10.0 mph 73 % 0.00 in 58.00 W/m2
16:08 61.6 °F 53.2 °F 29.83 in South 11.0 mph 13.0 mph 74 % 0.00 in 51.00 W/m2
16:13 61.4 °F 53.0 °F 29.83 in South 9.0 mph 11.0 mph 74 % 0.00 in 46.00 W/m2
16:18 61.4 °F 53.0 °F 29.83 in SSW 12.0 mph 14.0 mph 74 % 0.00 in 33.00 W/m2
16:23 61.3 °F 53.0 °F 29.82 in Calm   12.0 mph 74 % 0.00 in 23.00 W/m2
16:28 61.2 °F 52.9 °F 29.82 in South 9.0 mph 15.0 mph 74 % 0.00 in 19.00 W/m2
16:33 61.1 °F 53.1 °F 29.82 in South 6.0 mph 13.0 mph 75 % 0.00 in 14.00 W/m2
16:38 61.1 °F 53.5 °F 29.82 in SSW 8.0 mph 19.0 mph 76 % 0.00 in 12.00 W/m2
16:43 60.9 °F 54.0 °F 29.82 in SSW 1.0 mph 9.0 mph 78 % 0.00 in 12.00 W/m2
16:48 60.7 °F 54.2 °F 29.82 in South 10.0 mph 16.0 mph 79 % 0.00 in 33.00 W/m2
16:53 60.3 °F 54.1 °F 29.82 in South 10.0 mph 15.0 mph 80 % 0.00 in 33.00 W/m2
16:58 59.9 °F 53.7 °F 29.82 in SSW 3.0 mph 15.0 mph 80 % 0.04 in 37.00 W/m2
17:03 59.6 °F 53.8 °F 29.82 in SSW 12.0 mph 17.0 mph 81 % 0.04 in 56.00 W/m2
17:08 59.4 °F 53.6 °F 29.83 in SSW 6.0 mph 17.0 mph 81 % 0.04 in 51.00 W/m2
17:13 59.3 °F 53.8 °F 29.83 in SSW 10.0 mph 13.0 mph 82 % 0.04 in 32.00 W/m2
17:18 59.1 °F 54.0 °F 29.83 in SSW 2.0 mph 11.0 mph 83 % 0.00 in 26.00 W/m2
17:23 58.8 °F 53.3 °F 29.83 in SW 14.0 mph 19.0 mph 82 % 0.00 in 28.00 W/m2
17:28 58.5 °F 52.7 °F 29.83 in SSW 10.0 mph 16.0 mph 81 % 0.00 in 19.00 W/m2
17:33 58.4 °F 52.9 °F 29.83 in South 4.0 mph 15.0 mph 82 % 0.00 in 39.00 W/m2
17:38 58.3 °F 52.5 °F 29.83 in South 16.0 mph 16.0 mph 81 % 0.00 in 46.00 W/m2
17:43 58.2 °F 52.4 °F 29.83 in SW 3.0 mph 20.0 mph 81 % 0.00 in 32.00 W/m2
17:48 58.3 °F 52.5 °F 29.83 in SSW 6.0 mph 10.0 mph 81 % 0.00 in 33.00 W/m2
17:53 58.3 °F 52.5 °F 29.82 in SSW 18.0 mph 21.0 mph 81 % 0.00 in 28.00 W/m2
17:58 58.3 °F 52.5 °F 29.82 in SSW 8.0 mph 19.0 mph 81 % 0.00 in 25.00 W/m2
18:03 58.3 °F 52.5 °F 29.82 in SSW 9.0 mph 15.0 mph 81 % 0.00 in 23.00 W/m2
18:08 58.3 °F 52.5 °F 29.82 in South 10.0 mph 15.0 mph 81 % 0.00 in 28.00 W/m2
18:13 58.4 °F 52.6 °F 29.81 in SSE 21.0 mph 25.0 mph 81 % 0.00 in 25.00 W/m2
18:18 58.3 °F 52.5 °F 29.81 in SW 3.0 mph 20.0 mph 81 % 0.00 in 16.00 W/m2
18:23 58.3 °F 52.5 °F 29.82 in WSW 6.0 mph 18.0 mph 81 % 0.00 in 11.00 W/m2
18:28 58.3 °F 52.5 °F 29.82 in Calm   2.0 mph 81 % 0.00 in 0.00 W/m2
18:33 58.2 °F 52.4 °F 29.82 in WSW 3.0 mph 14.0 mph 81 % 0.00 in 5.00 W/m2
18:38 58.1 °F 52.3 °F 29.83 in SW 7.0 mph 16.0 mph 81 % 0.00 in 9.00 W/m2
18:43 58.0 °F 52.2 °F 29.83 in SW 7.0 mph 12.0 mph 81 % 0.00 in 0.00 W/m2
18:48 57.9 °F 52.1 °F 29.82 in SSW 7.0 mph 13.0 mph 81 % 0.00 in 0.00 W/m2
18:53 57.9 °F 52.5 °F 29.82 in SSW 2.0 mph 12.0 mph 82 % 0.00 in 0.00 W/m2
18:58 57.8 °F 52.3 °F 29.82 in SSW 9.0 mph 9.0 mph 82 % 0.00 in 0.00 W/m2
19:03 57.8 °F 52.3 °F 29.82 in Calm     82 % 0.00 in 0.00 W/m2
19:08 57.7 °F 52.2 °F 29.82 in Calm     82 % 0.00 in 0.00 W/m2
19:13 57.6 °F 52.2 °F 29.82 in Calm     82 % 0.00 in 0.00 W/m2
19:18 57.5 °F 51.7 °F 29.81 in South 8.0 mph 12.0 mph 81 % 0.00 in 0.00 W/m2
19:23 57.3 °F 51.2 °F 29.81 in SSW 10.0 mph 17.0 mph 80 % 0.00 in 0.00 W/m2
19:28 57.2 °F 51.1 °F 29.82 in South 6.0 mph 10.0 mph 80 % 0.00 in 0.00 W/m2
19:33 57.2 °F 51.1 °F 29.82 in South 9.0 mph 15.0 mph 80 % 0.00 in 0.00 W/m2
19:38 57.0 °F 50.9 °F 29.81 in SSW 8.0 mph 16.0 mph 80 % 0.00 in 0.00 W/m2
19:43 56.9 °F 50.8 °F 29.81 in SSW 7.0 mph 14.0 mph 80 % 0.00 in 0.00 W/m2
19:48 56.8 °F 50.7 °F 29.81 in SSE 4.0 mph 11.0 mph 80 % 0.00 in 0.00 W/m2
19:53 56.8 °F 50.7 °F 29.81 in South 14.0 mph 14.0 mph 80 % 0.00 in 0.00 W/m2
19:58 56.6 °F 50.2 °F 29.82 in South 10.0 mph 13.0 mph 79 % 0.00 in 0.00 W/m2
20:03 56.5 °F 50.1 °F 29.82 in Calm   2.0 mph 79 % 0.00 in 0.00 W/m2
20:15 56.2 °F 49.8 °F 29.82 in SSW 2.0 mph 12.0 mph 79 % 0.00 in 0.00 W/m2
20:20 56.2 °F 49.8 °F 29.82 in South 2.0 mph 13.0 mph 79 % 0.00 in 0.00 W/m2
20:21 56.1 °F 49.7 °F 29.82 in South 10.0 mph 10.0 mph 79 % 0.00 in 0.00 W/m2
20:27 56.0 °F 49.6 °F 29.82 in Calm   16.0 mph 79 % 0.00 in 0.00 W/m2
20:32 55.9 °F 49.5 °F 29.82 in Calm   15.0 mph 79 % 0.00 in 0.00 W/m2
20:37 55.8 °F 49.0 °F 29.83 in SSW 4.0 mph 8.0 mph 78 % 0.00 in 0.00 W/m2
20:42 55.7 °F 49.3 °F 29.83 in Calm   7.0 mph 79 % 0.00 in 0.00 W/m2
20:47 55.5 °F 49.1 °F 29.83 in South 7.0 mph 8.0 mph 79 % 0.00 in 0.00 W/m2
20:52 55.4 °F 49.0 °F 29.83 in Calm     79 % 0.00 in 0.00 W/m2
20:57 55.3 °F 48.9 °F 29.83 in Calm     79 % 0.00 in 0.00 W/m2
21:02 55.3 °F 49.2 °F 29.83 in South 11.0 mph 11.0 mph 80 % 0.00 in 0.00 W/m2
21:07 55.3 °F 49.2 °F 29.83 in South 6.0 mph 10.0 mph 80 % 0.00 in 0.00 W/m2
21:12 55.2 °F 49.2 °F 29.82 in South 8.0 mph 13.0 mph 80 % 0.00 in 0.00 W/m2
21:17 55.1 °F 49.0 °F 29.82 in South 6.0 mph 15.0 mph 80 % 0.00 in 0.00 W/m2
21:22 55.0 °F 49.0 °F 29.82 in Calm   6.0 mph 80 % 0.00 in 0.00 W/m2
21:28 55.0 °F 49.3 °F 29.82 in SSW 3.0 mph 12.0 mph 81 % 0.00 in 0.00 W/m2
21:33 54.9 °F 48.9 °F 29.82 in South 10.0 mph 13.0 mph 80 % 0.00 in 0.00 W/m2
21:38 54.8 °F 48.8 °F 29.82 in South 8.0 mph 8.0 mph 80 % 0.00 in 0.00 W/m2
21:43 54.8 °F 49.1 °F 29.83 in Calm   1.0 mph 81 % 0.00 in 0.00 W/m2
21:48 54.7 °F 49.0 °F 29.83 in SSW 6.0 mph 8.0 mph 81 % 0.00 in 0.00 W/m2
21:53 54.6 °F 48.9 °F 29.83 in Calm     81 % 0.00 in 0.00 W/m2
Juneau County Weather
Compliments of Weather Underground - 4.75 mb
 WU-history PHP script courtesy of   Juneau County Weather.
powered by Cumulus v1.9.3 (1059)
Ambient Weather VWS v14.00
Top Contact Website Map Copyright © 2007 - 2017 Foresthillweather.com Never base important decisions on this or any weather information obtained from the Internet